Weather in Hitachi

Japan     36°34′06″N   140°38′20″E
temp.,
°C
wind,
m/s
gust,
m/s
humid.,
%
clouds,
%
prec.,
mm/h
press.,
hPa
HPBL,
m
29 november, mon
mon2900:00+9nnw44510 0.0 1032611
03:00+8nw21530 0.0 1031351
06:00+8wsw33570 0.0 1031320
09:00+8wsw3355100 0.0 1031277
12:00+11sw4652100 0.0 1028650
15:00+13wsw5749100 0.0 10271119
18:00+12wnw3453100 0.0 1028329
21:00+11wnw32545 0.0 1028180
30 november, tue
tue3000:00+11w335712 0.0 1027183
03:00+10w44575 0.0 1026184
06:00+10w32556 0.0 1025169
09:00+10wsw34550 0.0 1025262
12:00+13sw58546 0.0 1023650
15:00+16ssw10146636 0.0 10201494
18:00+17ssw11146694 0.0 10181780
21:00+16ssw101569100 0.1 10161439
1 december, wed
wed100:00+17s152077100 0.8 10121561
03:00+18s162276100 1.3 10081355
06:00+17s212989100 3.5 10001771
09:00+18ssw15218690 5.4 999903
12:00+15nne437999 0.4 996229
15:00+13nne326942 0.6 998513
18:00+13ese245895 0.0 1001503
21:00+10nw78582 0.0 1004460
2 december, thu
thu200:00+10w11174562 0.0 10061462
03:00+9wnw914520 0.0 10081261
06:00+8nnw66615 0.0 1012641
09:00+8w57500 0.0 1016909
12:00+9wnw24371 0.0 10161490
15:00+11se22340 0.0 1016627
18:00+13ssw67350 0.0 10181705
21:00+13s91152100 0.0 10201638
3 december, fri
fri300:00+15ssw1013643 0.3 10171534
03:00+11sw710690 0.3 1016617
06:00+11sw811650 0.0 1017853
09:00+11wsw610610 0.0 1018647
12:00+13sw7843100 0.0 10151190
15:00+14wsw4536100 0.0 1014930
18:00+13wnw33370 0.0 1013327
21:00+11w33460 0.0 1013189